Theta_e
316 314 312 310 307 303 305 305 304 304 304 304 304 305 307 307 307 307 308 309 309 308 307 310 310 310 310 312 311 315 318 313 310 321 329 326 324 323 323 322 324 323 323 324 325 325 323
315 315 313 312 307 303 303 305 305 306 306 306 306 306 306 305 305 306 305 307 309 308 307 309 310 310 310 311 310 311 316 317 314 313 328 326 325 324 324 324 323 324 324 324 323 323 319
314 315 312 313 308 303 303 304 305 306 306 307 308 308 307 305 306 307 305 305 305 308 308 309 306 309 310 310 309 310 312 316 317 312 328 326 325 324 325 324 326 324 321 319 319 321 319
315 312 311 311 309 304 303 303 306 306 307 308 310 310 309 308 308 307 307 307 306 306 308 309 307 310 310 309 309 311 312 316 316 316 327 326 325 324 326 325 319 318 318 320 319 319 319
316 310 311 310 311 307 303 303 304 305 308 308 309 310 311 312 310 309 308 307 307 306 306 309 308 310 311 310 310 309 313 316 317 317 326 327 326 325 326 323 322 319 319 318 317 316 318
316 314 311 311 309 312 304 304 304 305 305 305 307 310 312 312 312 311 310 307 305 306 306 308 308 309 310 310 309 309 312 316 319 318 327 327 326 323 321 324 333 322 320 318 317 317 317
315 317 311 312 306 309 304 305 305 305 305 306 307 309 311 312 313 313 311 307 306 308 308 309 311 311 312 309 311 309 312 315 319 321 327 328 328 329 326 323 323 319 318 318 315 314 315
315 315 315 308 306 305 304 305 305 305 305 306 308 308 312 312 313 312 312 307 308 309 311 309 311 310 312 312 315 310 312 316 320 322 325 328 329 326 324 321 318 318 318 318 316 317 316
315 315 315 311 307 305 304 304 304 304 305 305 308 311 313 313 313 312 310 309 309 310 312 310 310 311 312 314 316 317 314 319 319 322 326 327 326 326 326 325 321 318 318 318 317 317 317
314 314 314 316 309 307 305 304 305 305 305 307 308 312 314 313 312 312 313 310 309 310 310 311 312 312 311 313 316 317 316 320 319 321 325 327 323 327 326 323 325 328 316 317 317 318 320
314 314 314 315 315 310 307 305 305 306 307 307 308 314 315 314 315 314 314 312 311 312 310 312 313 313 313 314 317 317 318 322 320 321 325 325 324 326 329 326 318 322 316 316 317 317 316
315 315 315 314 315 315 308 306 305 306 307 308 308 310 316 315 313 312 313 312 311 315 320 315 314 314 316 316 317 319 320 322 320 323 319 319 322 325 325 320 315 316 316 314 314 314 318
315 315 315 315 314 315 314 307 307 307 307 308 308 308 314 315 314 312 312 312 316 321 313 318 315 315 315 318 319 321 323 324 323 325 325 316 316 315 315 315 314 314 316 320 321 320 321
315 315 315 315 315 315 316 312 308 310 309 308 308 309 311 315 316 312 312 314 320 318 317 317 318 316 316 319 321 323 323 324 322 320 321 319 322 312 311 314 314 313 317 319 323 322 319
314 315 315 315 315 315 315 316 310 310 309 308 309 312 313 313 314 315 314 316 323 321 319 318 317 317 321 320 321 322 321 322 320 319 322 317 318 312 312 312 314 314 317 315 320 317 319
314 316 315 315 315 315 315 317 314 311 309 309 312 314 316 318 313 315 317 323 322 318 318 317 320 320 322 320 322 321 321 319 319 314 315 315 315 315 313 313 311 314 312 318 315 324 323
315 315 315 315 315 315 315 317 317 313 308 314 317 318 318 319 314 316 324 322 319 318 319 321 320 321 320 320 320 321 321 320 321 320 318 314 314 317 314 315 314 312 312 312 314 314 319
314 314 315 315 315 315 315 318 318 312 308 315 318 316 317 316 319 318 322 323 318 318 321 323 320 317 317 316 318 321 321 321 321 320 322 319 314 316 317 315 312 313 313 311 315 316 312
314 314 315 315 315 315 315 318 318 313 308 312 315 317 317 317 322 320 321 321 321 323 322 322 318 318 321 319 324 321 321 319 321 320 322 319 318 320 321 318 316 317 314 312 312 312 314
315 314 314 315 314 315 315 317 318 316 308 311 316 316 316 316 317 319 318 321 322 320 319 319 321 321 321 320 319 320 321 318 318 318 319 318 316 317 320 320 316 318 317 313 314 315 314
314 314 314 315 315 314 315 317 317 317 308 312 315 312 314 313 313 315 316 318 321 321 319 318 321 322 321 321 319 319 319 318 317 317 315 314 317 316 314 314 316 317 318 314 314 313 315
315 314 314 314 315 315 315 315 317 317 308 313 315 313 314 311 312 313 313 314 315 313 319 320 321 318 320 321 318 321 318 319 320 316 315 312 315 313 311 311 311 312 313 315 315 316 314
314 314 314 314 315 315 315 315 316 318 309 313 314 314 313 310 310 312 313 313 314 312 312 315 315 314 315 311 310 312 313 312 313 315 313 311 310 310 312 312 313 313 311 310 309 309 310
314 314 314 314 315 315 315 315 316 317 309 311 314 315 312 311 310 311 312 311 313 311 312 309 311 311 310 310 311 312 312 311 311 310 309 309 309 309 310 313 316 314 312 312 311 312 310
313 314 314 314 315 314 315 315 316 317 311 310 313 315 312 309 308 309 309 307 308 307 307 307 307 308 309 310 311 313 313 312 312 310 308 307 309 312 316 315 314 316 314 312 315 315 312
313 314 314 313 314 314 315 315 315 317 316 311 315 315 313 308 309 310 308 308 307 306 306 306 308 309 310 309 313 314 315 314 314 313 308 308 308 313 309 315 320 315 313 313 311 316 311
314 315 314 313 314 313 315 315 316 316 317 315 317 318 318 311 311 310 308 309 308 307 305 305 307 308 310 310 314 311 316 312 315 314 311 310 309 313 314 315 314 311 312 313 315 311 310
312 314 313 312 314 313 314 315 315 316 317 318 318 319 319 313 312 313 312 311 310 310 311 307 310 309 307 313 314 313 313 310 312 310 309 310 310 311 311 314 316 311 313 314 310 309 310
313 314 312 312 313 312 313 314 315 315 315 317 318 319 319 317 313 313 312 313 314 314 311 307 312 308 310 308 307 307 310 307 309 315 308 315 311 312 311 311 310 311 311 311 311 310 310
Wind_Speed
23 20 16 13 13 13 13 12 12 10 10 10 10 11 11 10 11 13 17 16 18 19 20 20 20 19 17 17 25 7 5 22 29 38 29 25 18 12 7 8 6 4 7 13 21 23 19
22 20 16 14 13 13 13 12 12 11 11 10 10 11 11 11 13 15 15 16 19 20 21 20 20 18 21 18 28 27 5 10 33 40 35 30 19 19 9 7 9 7 15 18 16 25 13
22 18 17 13 13 13 14 13 10 11 11 11 12 13 12 12 13 15 16 15 17 19 20 19 17 20 23 28 12 27 22 7 31 39 39 33 13 18 7 3 12 6 4 7 13 18 9
21 16 15 12 13 12 13 14 9 11 13 11 13 12 15 17 17 16 17 15 14 17 18 19 17 18 15 24 28 12 18 12 22 32 35 33 28 17 6 4 2 4 2 3 4 3 6
21 17 15 14 13 13 13 14 11 11 12 14 16 16 16 16 17 18 16 17 16 15 16 16 16 15 10 8 26 29 15 12 16 31 31 25 28 9 7 4 2 1 3 5 8 5 1
19 19 17 16 13 15 15 14 13 11 15 17 18 15 16 14 16 17 17 15 15 14 13 11 14 10 13 25 22 28 20 16 14 27 21 18 12 5 3 4 9 5 3 5 5 4 1
16 18 19 17 15 14 14 13 15 12 14 18 17 15 15 13 12 12 15 15 7 7 21 10 10 11 6 24 13 21 25 17 13 21 17 16 7 15 12 11 3 4 4 3 5 6 5
17 17 18 17 15 15 14 12 15 15 14 18 17 15 10 9 7 10 19 21 17 5 7 21 7 33 8 21 12 23 29 16 13 20 18 7 16 15 7 4 5 3 2 5 8 4 4
17 17 17 18 16 14 15 13 15 15 13 15 15 14 8 8 8 11 18 25 17 19 5 10 16 22 13 21 11 25 31 18 10 19 22 13 10 10 14 7 7 4 4 4 6 8 4
18 18 17 18 16 15 14 14 13 14 12 13 14 9 6 7 7 14 24 19 20 18 3 7 7 7 18 12 8 25 33 17 7 23 20 10 9 12 10 9 10 11 8 3 6 4 3
17 18 20 17 18 16 14 13 13 14 12 12 14 7 5 10 2 4 6 23 22 15 5 8 6 10 11 12 20 17 27 17 19 17 8 6 9 14 13 7 8 8 6 6 5 4 3
18 17 19 20 18 17 16 13 14 13 14 12 14 12 10 13 4 9 20 21 21 5 4 7 7 6 8 15 10 11 11 8 19 13 3 5 11 13 14 5 10 3 4 5 3 2 2
18 18 18 21 19 18 18 15 14 15 16 16 15 16 17 15 13 17 15 16 4 4 6 9 7 8 10 8 10 9 10 10 12 19 13 3 6 6 8 6 4 5 5 1 2 1 5
18 18 18 19 21 18 18 17 15 16 17 19 19 19 18 24 11 23 20 6 6 3 5 6 8 14 3 11 5 5 3 17 10 7 10 5 7 10 5 8 8 8 8 5 6 4 4
21 21 20 18 20 19 20 19 17 17 18 19 23 10 18 19 25 21 15 3 1 3 6 10 14 8 7 8 5 5 2 9 12 13 7 5 3 3 2 4 9 5 4 5 3 1 1
25 20 18 18 18 19 19 18 18 18 18 21 11 6 9 8 18 21 4 5 3 6 12 14 7 7 5 9 6 6 0 1 4 7 2 6 5 2 2 4 4 6 7 3 2 3 4
23 20 17 16 17 18 18 15 17 17 17 10 3 3 4 5 18 10 2 2 4 20 7 7 6 5 10 12 8 6 3 7 4 5 5 5 4 1 4 4 7 3 2 5 4 4 3
25 19 17 15 17 16 16 14 15 16 14 7 2 0 6 20 2 1 2 2 12 9 2 4 3 8 6 7 6 6 6 4 8 10 7 2 5 5 2 0 3 2 7 6 4 4 2
22 18 17 15 16 14 14 11 13 14 13 13 4 4 11 11 1 2 2 4 1 3 5 4 5 6 4 6 5 2 5 1 5 5 7 6 1 4 3 4 3 4 5 4 4 3 5
23 19 17 15 15 12 12 10 9 11 12 13 3 2 5 13 7 3 6 2 4 3 2 5 3 5 4 3 3 4 3 3 3 3 5 6 3 6 8 5 5 5 5 5 6 4 4
22 18 17 15 15 13 10 9 8 9 9 8 3 3 3 4 3 3 3 6 3 3 3 6 5 6 4 4 3 5 3 4 3 4 3 3 4 3 3 4 4 4 6 9 7 5 6
21 18 16 16 16 13 10 9 7 7 8 4 3 2 1 1 2 4 3 1 3 2 2 1 4 1 1 4 3 5 6 2 3 3 2 3 2 2 1 4 4 1 2 6 3 3 3
21 18 17 16 14 12 9 10 7 5 6 3 3 3 1 3 1 2 3 5 6 6 6 3 14 7 5 6 7 13 12 12 6 5 3 3 5 3 2 2 3 4 8 7 4 4 6
22 19 17 15 13 12 8 9 6 4 4 5 4 3 2 2 0 2 4 3 5 1 7 3 3 5 10 22 18 17 21 18 15 9 5 4 3 3 3 2 2 2 3 4 6 4 4
23 20 17 16 14 13 10 10 7 5 3 3 2 3 3 2 1 3 4 5 8 11 6 4 4 8 21 8 4 6 5 6 5 6 7 4 4 3 4 4 2 1 4 6 5 1 3
25 21 18 16 14 14 11 11 8 7 6 5 1 2 1 5 2 5 4 2 4 4 3 4 8 11 6 3 3 5 5 5 3 4 5 5 5 3 2 3 6 2 1 4 4 1 2
23 21 18 17 15 14 13 12 10 9 7 7 4 4 1 4 3 5 3 5 6 5 4 2 4 4 2 2 2 3 3 4 5 8 5 2 2 4 2 2 5 4 2 3 4 4 6
22 21 18 17 16 14 14 14 12 10 8 8 7 5 4 3 5 3 3 4 6 4 4 8 5 1 3 3 3 3 3 4 3 5 6 6 6 4 3 2 6 0 3 5 6 10 10
22 21 19 18 17 15 14 14 13 11 9 8 9 8 8 4 5 8 9 7 5 4 8 10 2 3 6 4 1 3 2 1 3 3 1 3 5 5 6 4 1 4 10 14 10 11 4
Wind_Direction
330 329 325 325 321 316 313 317 321 314 306 294 297 290 277 273 274 265 253 246 241 236 235 229 228 223 211 212 221 192 346 206 205 203 198 205 188 175 174 184 198 213 261 262 267 278 281
329 325 321 320 321 314 305 308 313 310 314 299 292 288 282 276 268 267 264 251 239 235 228 227 227 217 214 230 236 219 328 220 197 203 197 201 204 186 188 198 177 213 241 263 274 278 272
331 318 315 307 313 310 303 298 307 309 305 308 300 285 273 273 269 262 259 248 239 231 225 226 223 218 219 227 231 232 233 284 201 200 199 202 184 186 186 164 220 238 279 300 259 267 247
331 325 318 307 309 312 303 290 293 300 298 309 306 293 282 271 257 261 254 247 241 234 222 220 221 216 233 240 231 216 220 226 206 196 201 204 202 215 199 172 91 174 133 276 284 287 276
330 333 322 316 307 314 305 294 284 287 309 303 298 294 291 280 268 250 248 238 227 227 224 220 218 215 233 253 232 222 201 205 207 191 199 204 203 209 189 144 67 42 201 227 308 234 235
326 330 328 318 307 301 303 298 288 288 296 296 302 292 299 291 264 251 233 224 222 224 217 211 221 203 237 222 226 218 205 186 185 192 205 195 175 162 131 152 202 191 180 256 242 291 22
319 322 326 315 315 301 300 302 294 290 300 304 316 302 287 285 280 238 211 187 199 226 207 185 203 216 281 216 219 206 196 184 174 188 194 183 183 194 179 198 159 182 188 222 254 248 219
312 318 319 320 316 309 304 305 299 300 303 306 319 324 294 287 247 209 194 194 200 203 165 206 254 211 315 178 171 191 186 170 176 193 187 166 210 204 171 155 161 184 204 266 293 332 185
316 317 321 320 319 313 307 306 304 302 304 305 316 320 315 274 218 198 203 205 201 181 156 204 231 213 213 181 174 177 180 184 179 190 194 202 181 161 186 185 188 219 202 242 228 320 295
322 324 323 318 321 316 313 308 308 304 311 316 314 315 293 239 251 225 217 209 194 152 148 176 204 204 218 205 184 174 184 178 163 196 190 222 188 161 190 205 182 224 201 206 276 314 251
317 322 322 318 318 317 314 309 308 308 309 313 314 309 240 214 250 258 162 191 193 202 152 166 159 162 184 192 141 186 189 199 173 163 185 182 159 174 198 193 164 223 152 200 231 228 352
312 317 315 319 313 318 314 308 304 306 305 308 307 303 212 218 183 211 146 161 174 239 125 171 141 159 148 203 163 157 212 200 170 148 27 160 182 186 192 189 181 130 89 53 65 73 285
305 309 309 310 315 313 315 312 308 303 303 302 297 296 244 223 190 173 175 160 240 253 142 150 179 153 180 180 142 189 175 192 158 163 181 123 181 172 138 136 125 105 114 337 321 305 228
300 301 303 304 309 309 312 315 313 306 304 303 297 293 255 226 195 174 172 197 251 97 189 164 146 141 159 169 157 140 203 161 162 139 136 161 172 159 192 158 167 172 163 164 201 205 255
297 294 292 300 301 310 308 314 316 311 311 307 303 270 253 245 211 196 174 223 271 140 126 123 122 150 198 179 114 109 301 149 153 173 152 135 185 113 124 130 150 183 173 176 83 55 21
295 290 290 296 297 304 308 312 320 316 318 313 293 254 263 264 201 187 180 269 101 126 131 154 137 195 139 144 111 145 238 221 137 161 149 200 96 35 139 112 41 141 164 93 29 240 247
294 290 292 289 296 304 308 312 322 322 327 320 269 246 330 143 154 177 246 69 109 141 125 192 144 165 144 146 127 149 180 161 208 168 125 150 97 238 120 195 163 101 137 62 127 147 198
297 288 289 282 289 299 303 310 324 326 338 324 270 7 153 145 213 217 306 49 150 156 333 263 133 100 151 137 116 167 188 190 185 148 168 175 121 126 178 269 152 144 167 155 140 221 215
295 284 283 275 282 293 296 302 324 328 333 339 317 109 162 182 236 124 15 56 351 202 242 202 136 163 142 139 107 157 125 60 160 145 164 171 44 98 49 10 359 191 192 148 116 97 195
292 280 281 274 281 290 288 293 317 323 323 335 292 158 145 217 256 193 137 185 181 251 264 61 91 129 105 103 48 131 102 53 97 115 119 114 130 157 188 196 147 177 180 171 150 150 178
288 274 279 274 271 289 278 283 299 315 310 322 251 256 147 207 239 148 106 149 150 93 80 33 63 83 120 123 98 103 101 120 61 110 89 121 123 117 85 127 134 178 181 173 182 171 177
282 272 274 270 263 275 270 273 285 310 306 273 264 287 87 36 64 102 19 90 120 99 97 354 83 345 345 104 57 142 138 128 171 70 81 17 125 111 77 49 70 129 172 169 190 204 244
278 270 270 266 261 262 261 259 272 289 294 235 250 246 359 327 40 101 187 166 163 130 47 95 137 110 52 325 52 94 90 81 97 128 114 96 130 111 208 53 62 312 216 187 178 193 159
275 266 267 262 249 251 249 249 255 259 274 236 237 198 125 254 19 201 135 95 135 177 133 102 98 124 149 126 97 75 68 67 58 36 54 115 88 72 151 76 189 223 315 157 128 65 116
270 263 263 252 240 245 236 239 237 237 223 198 225 215 187 135 171 49 78 111 96 66 61 73 41 115 150 129 79 52 3 13 15 29 25 46 118 120 166 194 298 47 187 149 160 118 30
264 258 253 243 235 237 231 226 222 226 202 201 147 198 180 125 220 133 103 118 128 104 47 50 92 122 122 84 88 148 180 169 218 1 16 45 69 105 87 150 215 186 149 96 95 222 348
258 254 245 235 227 229 225 214 218 213 201 195 178 157 134 99 106 148 136 168 128 101 100 136 155 129 81 89 101 141 183 151 160 169 174 98 35 151 150 219 289 248 225 100 124 195 139
253 251 235 226 221 220 221 211 213 205 203 186 185 171 159 113 110 120 121 143 133 141 143 160 109 343 54 86 127 182 142 201 113 154 173 162 145 175 99 108 263 258 88 168 144 137 142
245 245 227 221 217 213 217 217 204 202 211 187 177 161 142 126 130 114 100 100 111 127 138 159 119 149 156 97 117 116 130 121 145 199 35 193 179 175 180 217 227 67 123 126 133 147 171